Time,TemperatureF,DewpointF,PressureIn,WindDirection,WindDirectionDegrees,WindSpeedMPH,WindSpeedGustMPH,Humidity,HourlyPrecipIn,Conditions,Clouds,dailyrainin,SoftwareType,DateUTC
2013-02-26 00:03:00,32.2,29.3,29.91,ENE,63,3.0,3.0,89,0.00,,,0.00,Wunderground v.1.15,2013-02-26 06:03:00,
2013-02-26 00:09:00,32.2,29.3,29.91,ENE,59,2.0,3.0,89,0.00,,,0.00,Wunderground v.1.15,2013-02-26 06:09:00,
2013-02-26 00:15:00,32.1,29.2,29.91,ENE,60,2.0,3.0,89,0.00,,,0.00,Wunderground v.1.15,2013-02-26 06:15:00,
2013-02-26 00:22:00,32.0,29.1,29.91,ENE,59,2.0,2.0,89,0.00,,,0.00,Wunderground v.1.15,2013-02-26 06:22:00,
2013-02-26 00:28:00,31.9,29.3,29.91,NE,56,2.0,5.0,90,0.00,,,0.00,Wunderground v.1.15,2013-02-26 06:28:00,
2013-02-26 00:33:00,31.8,29.2,29.91,NE,55,3.0,3.0,90,0.00,,,0.00,Wunderground v.1.15,2013-02-26 06:33:00,
2013-02-26 00:39:00,31.7,29.1,29.90,NE,55,2.0,3.0,90,0.00,,,0.00,Wunderground v.1.15,2013-02-26 06:39:00,
2013-02-26 00:44:00,31.7,29.1,29.90,NE,55,3.0,3.0,90,0.00,,,0.00,Wunderground v.1.15,2013-02-26 06:44:00,
2013-02-26 00:49:00,31.7,29.1,29.90,NE,55,3.0,3.0,90,0.00,,,0.00,Wunderground v.1.15,2013-02-26 06:49:00,
2013-02-26 00:55:00,31.6,29.0,29.90,ENE,59,2.0,3.0,90,0.00,,,0.00,Wunderground v.1.15,2013-02-26 06:55:00,
2013-02-26 01:00:00,31.6,29.0,29.90,ENE,61,2.0,3.0,90,0.00,,,0.00,Wunderground v.1.15,2013-02-26 07:00:00,
2013-02-26 01:06:00,31.6,29.0,29.90,ENE,61,1.0,3.0,90,0.00,,,0.00,Wunderground v.1.15,2013-02-26 07:06:00,
2013-02-26 01:12:00,31.5,28.9,29.90,ENE,61,1.0,2.0,90,0.00,,,0.00,Wunderground v.1.15,2013-02-26 07:12:00,
2013-02-26 01:18:00,31.5,28.6,29.89,ENE,61,1.0,3.0,89,0.00,,,0.00,Wunderground v.1.15,2013-02-26 07:18:00,
2013-02-26 01:25:00,31.4,28.5,29.89,ENE,61,0.0,1.0,89,0.00,,,0.00,Wunderground v.1.15,2013-02-26 07:25:00,
2013-02-26 01:32:00,31.2,28.3,29.89,ENE,60,2.0,2.0,89,0.00,,,0.00,Wunderground v.1.15,2013-02-26 07:32:00,
2013-02-26 01:38:00,31.2,28.6,29.88,ENE,61,2.0,3.0,90,0.00,,,0.00,Wunderground v.1.15,2013-02-26 07:38:00,
2013-02-26 01:43:00,31.1,28.5,29.88,ENE,61,1.0,2.0,90,0.00,,,0.00,Wunderground v.1.15,2013-02-26 07:43:00,
2013-02-26 01:49:00,31.2,28.3,29.88,ENE,65,5.0,5.0,89,0.00,,,0.00,Wunderground v.1.15,2013-02-26 07:49:00,
2013-02-26 01:54:00,31.3,28.4,29.87,ENE,62,3.0,4.0,89,0.00,,,0.00,Wunderground v.1.15,2013-02-26 07:54:00,
2013-02-26 01:59:00,31.4,28.5,29.87,ENE,65,3.0,4.0,89,0.00,,,0.00,Wunderground v.1.15,2013-02-26 07:59:00,
2013-02-26 02:04:00,31.4,28.5,29.86,ENE,68,3.0,3.0,89,0.00,,,0.00,Wunderground v.1.15,2013-02-26 08:04:00,
2013-02-26 02:09:00,31.4,28.3,29.86,ENE,69,4.0,5.0,88,0.00,,,0.00,Wunderground v.1.15,2013-02-26 08:09:00,
2013-02-26 02:14:00,31.4,28.3,29.86,ENE,70,2.0,5.0,88,0.00,,,0.00,Wunderground v.1.15,2013-02-26 08:14:00,
2013-02-26 02:19:00,31.4,28.3,29.86,ENE,71,3.0,5.0,88,0.00,,,0.00,Wunderground v.1.15,2013-02-26 08:19:00,
2013-02-26 02:24:00,31.2,28.1,29.85,ENE,71,3.0,3.0,88,0.00,,,0.00,Wunderground v.1.15,2013-02-26 08:24:00,
2013-02-26 02:30:00,31.2,28.1,29.85,ENE,71,4.0,5.0,88,0.00,,,0.00,Wunderground v.1.15,2013-02-26 08:30:00,
2013-02-26 02:35:00,31.2,28.1,29.84,ENE,67,5.0,5.0,88,0.00,,,0.00,Wunderground v.1.15,2013-02-26 08:35:00,
2013-02-26 02:40:00,31.2,28.1,29.84,ENE,67,4.0,5.0,88,0.00,,,0.00,Wunderground v.1.15,2013-02-26 08:40:00,
2013-02-26 02:45:00,31.1,28.0,29.84,ENE,68,3.0,4.0,88,0.00,,,0.00,Wunderground v.1.15,2013-02-26 08:45:00,
2013-02-26 02:50:00,31.0,27.9,29.83,ENE,68,3.0,4.0,88,0.00,,,0.00,Wunderground v.1.15,2013-02-26 08:50:00,
2013-02-26 02:55:00,30.9,27.8,29.83,ENE,67,1.0,4.0,88,0.00,,,0.00,Wunderground v.1.15,2013-02-26 08:55:00,
2013-02-26 03:00:00,30.8,27.7,29.82,ENE,67,2.0,2.0,88,0.00,,,0.00,Wunderground v.1.15,2013-02-26 09:00:00,
2013-02-26 03:05:00,30.8,27.7,29.82,ENE,68,2.0,4.0,88,0.00,,,0.00,Wunderground v.1.15,2013-02-26 09:05:00,
2013-02-26 03:10:00,30.8,27.7,29.81,ENE,67,2.0,3.0,88,0.00,,,0.00,Wunderground v.1.15,2013-02-26 09:10:00,
2013-02-26 03:15:00,30.8,27.7,29.81,ENE,66,2.0,4.0,88,0.00,,,0.00,Wunderground v.1.15,2013-02-26 09:15:00,
2013-02-26 03:20:00,30.8,27.7,29.81,ENE,66,1.0,5.0,88,0.00,,,0.00,Wunderground v.1.15,2013-02-26 09:20:00,
2013-02-26 03:25:00,30.8,27.4,29.81,ENE,66,3.0,3.0,87,0.00,,,0.00,Wunderground v.1.15,2013-02-26 09:25:00,
2013-02-26 03:30:00,30.8,27.4,29.82,ENE,65,3.0,4.0,87,0.00,,,0.00,Wunderground v.1.15,2013-02-26 09:30:00,
2013-02-26 03:35:00,30.8,27.4,29.82,ENE,66,4.0,6.0,87,0.00,,,0.00,Wunderground v.1.15,2013-02-26 09:35:00,
2013-02-26 03:40:00,30.8,27.4,29.82,ENE,67,4.0,6.0,87,0.00,,,0.00,Wunderground v.1.15,2013-02-26 09:40:00,
2013-02-26 03:45:00,31.0,27.6,29.82,ENE,64,4.0,5.0,87,0.00,,,0.00,Wunderground v.1.15,2013-02-26 09:45:00,
2013-02-26 03:50:00,31.0,27.6,29.81,ENE,63,3.0,5.0,87,0.00,,,0.00,Wunderground v.1.15,2013-02-26 09:50:00,
2013-02-26 03:55:00,31.1,27.4,29.81,ENE,63,3.0,4.0,86,0.00,,,0.00,Wunderground v.1.15,2013-02-26 09:55:00,
2013-02-26 04:01:00,31.2,27.5,29.80,ENE,65,2.0,4.0,86,0.00,,,0.00,Wunderground v.1.15,2013-02-26 10:01:00,
2013-02-26 04:06:00,31.3,27.6,29.80,ENE,69,4.0,5.0,86,0.00,,,0.00,Wunderground v.1.15,2013-02-26 10:06:00,
2013-02-26 04:13:00,31.4,27.4,29.80,ENE,65,5.0,5.0,85,0.00,,,0.00,Wunderground v.1.15,2013-02-26 10:13:00,
2013-02-26 04:18:00,31.5,27.5,29.80,ENE,71,2.0,8.0,85,0.00,,,0.00,Wunderground v.1.15,2013-02-26 10:18:00,
2013-02-26 04:23:00,31.6,27.3,29.80,ENE,72,5.0,5.0,84,0.00,,,0.00,Wunderground v.1.15,2013-02-26 10:23:00,
2013-02-26 04:28:00,31.6,27.3,29.80,ENE,74,4.0,6.0,84,0.00,,,0.00,Wunderground v.1.15,2013-02-26 10:28:00,
2013-02-26 04:34:00,31.7,27.4,29.80,ENE,71,3.0,7.0,84,0.00,,,0.00,Wunderground v.1.15,2013-02-26 10:34:00,
2013-02-26 04:39:00,31.7,27.4,29.80,ENE,71,3.0,7.0,84,0.00,,,0.00,Wunderground v.1.15,2013-02-26 10:39:00,
2013-02-26 04:44:00,31.7,27.1,29.79,ENE,69,3.0,4.0,83,0.00,,,0.00,Wunderground v.1.15,2013-02-26 10:44:00,
2013-02-26 04:49:00,31.8,27.2,29.79,ENE,67,3.0,6.0,83,0.00,,,0.00,Wunderground v.1.15,2013-02-26 10:49:00,
2013-02-26 04:54:00,31.8,27.2,29.79,ENE,70,4.0,6.0,83,0.00,,,0.00,Wunderground v.1.15,2013-02-26 10:54:00,
2013-02-26 04:59:00,31.8,27.2,29.79,ENE,73,5.0,7.0,83,0.00,,,0.00,Wunderground v.1.15,2013-02-26 10:59:00,
2013-02-26 05:04:00,31.8,27.2,29.79,ENE,67,5.0,5.0,83,0.00,,,0.00,Wunderground v.1.15,2013-02-26 11:04:00,
2013-02-26 05:09:00,31.8,27.2,29.79,ENE,68,3.0,6.0,83,0.00,,,0.00,Wunderground v.1.15,2013-02-26 11:09:00,
2013-02-26 05:14:00,31.8,27.5,29.78,ENE,67,5.0,7.0,84,0.00,,,0.00,Wunderground v.1.15,2013-02-26 11:14:00,
2013-02-26 05:19:00,31.7,27.7,29.78,ENE,73,2.0,7.0,85,0.00,,,0.00,Wunderground v.1.15,2013-02-26 11:19:00,
2013-02-26 05:24:00,31.4,27.7,29.77,ENE,61,4.0,6.0,86,0.00,,,0.00,Wunderground v.1.15,2013-02-26 11:24:00,
2013-02-26 05:29:00,31.1,27.7,29.77,ENE,62,3.0,6.0,87,0.00,,,0.00,Wunderground v.1.15,2013-02-26 11:29:00,
2013-02-26 05:34:00,30.9,28.0,29.77,ENE,61,2.0,3.0,89,0.00,,,0.00,Wunderground v.1.15,2013-02-26 11:34:00,
2013-02-26 05:39:00,30.7,28.1,29.77,NNE,22,6.0,6.0,90,0.00,,,0.00,Wunderground v.1.15,2013-02-26 11:39:00,
2013-02-26 05:44:00,30.6,28.0,29.76,North,5,8.0,8.0,90,0.00,,,0.00,Wunderground v.1.15,2013-02-26 11:44:00,
2013-02-26 05:49:00,30.4,27.8,29.76,NNE,17,9.0,14.0,90,0.00,,,0.00,Wunderground v.1.15,2013-02-26 11:49:00,
2013-02-26 05:54:00,30.3,28.0,29.75,North,10,8.0,13.0,91,0.00,,,0.00,Wunderground v.1.15,2013-02-26 11:54:00,
2013-02-26 05:59:00,30.2,28.2,29.75,NNE,24,3.0,13.0,92,0.00,,,0.00,Wunderground v.1.15,2013-02-26 11:59:00,
2013-02-26 06:04:00,30.1,28.1,29.75,NNE,25,1.0,5.0,92,0.00,,,0.00,Wunderground v.1.15,2013-02-26 12:04:00,
2013-02-26 06:09:00,30.2,28.2,29.75,NE,44,3.0,5.0,92,0.00,,,0.00,Wunderground v.1.15,2013-02-26 12:09:00,
2013-02-26 06:14:00,30.3,28.3,29.75,NE,44,2.0,7.0,92,0.00,,,0.00,Wunderground v.1.15,2013-02-26 12:14:00,
2013-02-26 06:19:00,30.3,28.3,29.75,NNE,28,5.0,9.0,92,0.00,,,0.00,Wunderground v.1.15,2013-02-26 12:19:00,
2013-02-26 06:24:00,30.4,28.4,29.75,NNE,20,4.0,11.0,92,0.00,,,0.00,Wunderground v.1.15,2013-02-26 12:24:00,
2013-02-26 06:29:00,30.4,28.4,29.75,NNE,27,2.0,11.0,92,0.00,,,0.00,Wunderground v.1.15,2013-02-26 12:29:00,
2013-02-26 06:34:00,30.4,28.4,29.75,NNE,30,2.0,10.0,92,0.00,,,0.00,Wunderground v.1.15,2013-02-26 12:34:00,
2013-02-26 06:39:00,30.5,28.5,29.75,NNE,32,13.0,13.0,92,0.00,,,0.00,Wunderground v.1.15,2013-02-26 12:39:00,
2013-02-26 06:44:00,30.6,28.3,29.75,NNE,13,8.0,13.0,91,0.00,,,0.00,Wunderground v.1.15,2013-02-26 12:44:00,
2013-02-26 06:50:00,30.8,28.2,29.74,NE,36,4.0,17.0,90,0.00,,,0.00,Wunderground v.1.15,2013-02-26 12:50:00,
2013-02-26 06:55:00,30.9,28.3,29.75,NNE,15,3.0,6.0,90,0.00,,,0.00,Wunderground v.1.15,2013-02-26 12:55:00,
2013-02-26 07:00:00,31.0,28.1,29.75,NNE,23,5.0,5.0,89,0.00,,,0.00,Wunderground v.1.15,2013-02-26 13:00:00,
2013-02-26 07:05:00,31.0,28.1,29.75,North,5,7.0,7.0,89,0.00,,,0.00,Wunderground v.1.15,2013-02-26 13:05:00,
2013-02-26 07:10:00,31.0,28.1,29.75,NNE,22,3.0,6.0,89,0.00,,,0.00,Wunderground v.1.15,2013-02-26 13:10:00,
2013-02-26 07:15:00,31.1,28.2,29.76,NNE,32,2.0,11.0,89,0.00,,,0.00,Wunderground v.1.15,2013-02-26 13:15:00,
2013-02-26 07:20:00,31.1,28.2,29.75,NNE,28,3.0,11.0,89,0.00,,,0.00,Wunderground v.1.15,2013-02-26 13:20:00,
2013-02-26 07:25:00,31.0,27.9,29.76,NNE,15,3.0,7.0,88,0.00,,,0.00,Wunderground v.1.15,2013-02-26 13:25:00,
2013-02-26 07:30:00,31.0,27.9,29.76,NNE,32,2.0,8.0,88,0.00,,,0.00,Wunderground v.1.15,2013-02-26 13:30:00,
2013-02-26 07:35:00,31.0,27.9,29.76,NE,42,2.0,4.0,88,0.00,,,0.00,Wunderground v.1.15,2013-02-26 13:35:00,
2013-02-26 07:40:00,31.0,27.9,29.76,NE,46,2.0,4.0,88,0.00,,,0.00,Wunderground v.1.15,2013-02-26 13:40:00,
2013-02-26 07:45:00,31.1,27.7,29.76,NE,51,5.0,8.0,87,0.00,,,0.00,Wunderground v.1.15,2013-02-26 13:45:00,
2013-02-26 07:50:00,31.2,27.8,29.77,NE,51,4.0,9.0,87,0.00,,,0.00,Wunderground v.1.15,2013-02-26 13:50:00,
2013-02-26 07:55:00,31.2,27.5,29.77,NE,46,2.0,5.0,86,0.00,,,0.00,Wunderground v.1.15,2013-02-26 13:55:00,
2013-02-26 08:00:00,31.3,27.6,29.77,NE,47,3.0,4.0,86,0.00,,,0.00,Wunderground v.1.15,2013-02-26 14:00:00,
2013-02-26 08:05:00,31.3,27.6,29.77,NNE,28,2.0,6.0,86,0.00,,,0.00,Wunderground v.1.15,2013-02-26 14:05:00,
2013-02-26 08:10:00,31.4,27.7,29.77,NNE,18,3.0,4.0,86,0.00,,,0.00,Wunderground v.1.15,2013-02-26 14:10:00,
2013-02-26 08:15:00,31.4,27.7,29.77,NE,40,2.0,4.0,86,0.00,,,0.00,Wunderground v.1.15,2013-02-26 14:15:00,
2013-02-26 08:20:00,31.4,27.7,29.77,NE,56,2.0,5.0,86,0.00,,,0.00,Wunderground v.1.15,2013-02-26 14:20:00,
2013-02-26 08:25:00,31.5,27.8,29.77,NE,48,3.0,3.0,86,0.00,,,0.00,Wunderground v.1.15,2013-02-26 14:25:00,
2013-02-26 08:30:00,31.5,27.8,29.76,NNE,26,3.0,9.0,86,0.00,,,0.00,Wunderground v.1.15,2013-02-26 14:30:00,
2013-02-26 08:35:00,31.6,27.6,29.76,NNE,16,7.0,8.0,85,0.00,,,0.00,Wunderground v.1.15,2013-02-26 14:35:00,
2013-02-26 08:40:00,31.7,27.7,29.76,NNE,13,2.0,12.0,85,0.00,,,0.00,Wunderground v.1.15,2013-02-26 14:40:00,
2013-02-26 08:45:00,31.8,27.8,29.75,NNE,24,2.0,10.0,85,0.00,,,0.00,Wunderground v.1.15,2013-02-26 14:45:00,
2013-02-26 08:50:00,31.9,27.9,29.75,NNE,23,2.0,10.0,85,0.00,,,0.00,Wunderground v.1.15,2013-02-26 14:50:00,
2013-02-26 08:56:00,32.0,28.0,29.75,NNE,31,5.0,12.0,85,0.00,,,0.00,Wunderground v.1.15,2013-02-26 14:56:00,
2013-02-26 09:01:00,32.1,27.8,29.75,NNE,15,4.0,6.0,84,0.00,,,0.00,Wunderground v.1.15,2013-02-26 15:01:00,
2013-02-26 09:06:00,32.3,28.0,29.74,NNE,27,3.0,13.0,84,0.00,,,0.00,Wunderground v.1.15,2013-02-26 15:06:00,
2013-02-26 09:11:00,32.4,28.1,29.74,ENE,57,3.0,5.0,84,0.00,,,0.00,Wunderground v.1.15,2013-02-26 15:11:00,
2013-02-26 09:16:00,32.5,28.2,29.73,NNE,32,7.0,15.0,84,0.00,,,0.00,Wunderground v.1.15,2013-02-26 15:16:00,
2013-02-26 09:21:00,32.5,27.9,29.73,NNE,15,5.0,15.0,83,0.00,,,0.00,Wunderground v.1.15,2013-02-26 15:21:00,
2013-02-26 09:26:00,32.5,27.9,29.73,NNE,26,9.0,15.0,83,0.00,,,0.00,Wunderground v.1.15,2013-02-26 15:26:00,
2013-02-26 09:32:00,32.5,27.9,29.72,North,5,9.0,9.0,83,0.00,,,0.00,Wunderground v.1.15,2013-02-26 15:32:00,
2013-02-26 09:37:00,32.6,28.0,29.72,NNE,17,7.0,26.0,83,0.00,,,0.00,Wunderground v.1.15,2013-02-26 15:37:00,
2013-02-26 09:43:00,32.6,28.0,29.72,ENE,74,7.0,9.0,83,0.00,,,0.00,Wunderground v.1.15,2013-02-26 15:43:00,
2013-02-26 09:48:00,32.7,28.1,29.72,NNE,23,8.0,21.0,83,0.00,,,0.00,Wunderground v.1.15,2013-02-26 15:48:00,
2013-02-26 09:54:00,32.7,28.1,29.72,NNE,32,10.0,12.0,83,0.00,,,0.00,Wunderground v.1.15,2013-02-26 15:54:00,
2013-02-26 09:59:00,32.6,28.0,29.72,NNE,12,10.0,14.0,83,0.00,,,0.00,Wunderground v.1.15,2013-02-26 15:59:00,
2013-02-26 10:04:00,32.5,28.2,29.72,NNE,25,10.0,10.0,84,0.00,,,0.00,Wunderground v.1.15,2013-02-26 16:04:00,
2013-02-26 10:09:00,32.5,28.2,29.72,NNE,24,3.0,10.0,84,0.00,,,0.00,Wunderground v.1.15,2013-02-26 16:09:00,
2013-02-26 10:14:00,32.6,28.3,29.71,NNE,15,5.0,17.0,84,0.00,,,0.00,Wunderground v.1.15,2013-02-26 16:14:00,
2013-02-26 10:19:00,32.6,28.3,29.71,NNE,24,4.0,17.0,84,0.00,,,0.00,Wunderground v.1.15,2013-02-26 16:19:00,
2013-02-26 10:24:00,32.8,28.5,29.71,North,9,5.0,15.0,84,0.00,,,0.00,Wunderground v.1.15,2013-02-26 16:24:00,
2013-02-26 10:29:00,32.9,28.6,29.71,NNE,28,11.0,15.0,84,0.00,,,0.00,Wunderground v.1.15,2013-02-26 16:29:00,
2013-02-26 10:34:00,33.0,28.4,29.70,ENE,61,1.0,11.0,83,0.00,,,0.00,Wunderground v.1.15,2013-02-26 16:34:00,
2013-02-26 10:39:00,33.1,28.5,29.70,NNW,345,7.0,12.0,83,0.00,,,0.00,Wunderground v.1.15,2013-02-26 16:39:00,
2013-02-26 10:44:00,33.2,28.6,29.70,North,355,5.0,11.0,83,0.00,,,0.00,Wunderground v.1.15,2013-02-26 16:44:00,
2013-02-26 10:49:00,33.2,28.6,29.70,NNE,28,4.0,10.0,83,0.00,,,0.00,Wunderground v.1.15,2013-02-26 16:49:00,
2013-02-26 10:54:00,33.2,28.6,29.70,NE,54,7.0,12.0,83,0.00,,,0.00,Wunderground v.1.15,2013-02-26 16:54:00,
2013-02-26 10:59:00,33.3,29.0,29.69,NE,44,4.0,12.0,84,0.00,,,0.00,Wunderground v.1.15,2013-02-26 16:59:00,
2013-02-26 11:05:00,33.5,29.2,29.70,NE,56,4.0,4.0,84,0.00,,,0.00,Wunderground v.1.15,2013-02-26 17:05:00,
2013-02-26 11:10:00,33.7,29.4,29.69,NE,39,6.0,21.0,84,0.00,,,0.01,Wunderground v.1.15,2013-02-26 17:10:00,
2013-02-26 11:15:00,33.8,29.5,29.69,North,10,3.0,12.0,84,0.00,,,0.01,Wunderground v.1.15,2013-02-26 17:15:00,
2013-02-26 11:20:00,33.6,29.6,29.69,NE,46,6.0,19.0,85,0.00,,,0.01,Wunderground v.1.15,2013-02-26 17:20:00,
2013-02-26 11:25:00,33.2,29.2,29.69,NNE,23,8.0,22.0,85,0.00,,,0.01,Wunderground v.1.15,2013-02-26 17:25:00,
2013-02-26 11:30:00,32.8,29.4,29.68,NNE,26,11.0,22.0,87,0.00,,,0.01,Wunderground v.1.15,2013-02-26 17:30:00,
2013-02-26 11:35:00,32.8,29.4,29.68,NNE,16,16.0,23.0,87,0.00,,,0.01,Wunderground v.1.15,2013-02-26 17:35:00,
2013-02-26 11:41:00,32.8,29.4,29.68,North,5,8.0,24.0,87,0.00,,,0.01,Wunderground v.1.15,2013-02-26 17:41:00,
2013-02-26 11:46:00,32.9,29.5,29.68,NNE,18,7.0,11.0,87,0.00,,,0.01,Wunderground v.1.15,2013-02-26 17:46:00,
2013-02-26 11:53:00,33.3,29.8,29.68,North,360,10.0,10.0,87,0.00,,,0.01,Wunderground v.1.15,2013-02-26 17:53:00,
2013-02-26 11:58:00,33.5,29.8,29.68,NE,36,2.0,17.0,86,0.00,,,0.01,Wunderground v.1.15,2013-02-26 17:58:00,
2013-02-26 12:03:00,33.7,30.0,29.68,NE,42,3.0,6.0,86,0.00,,,0.01,Wunderground v.1.15,2013-02-26 18:03:00,
2013-02-26 12:08:00,33.7,30.0,29.67,NNE,31,7.0,18.0,86,0.00,,,0.01,Wunderground v.1.15,2013-02-26 18:08:00,
2013-02-26 12:13:00,33.7,30.0,29.67,NE,42,3.0,10.0,86,0.00,,,0.01,Wunderground v.1.15,2013-02-26 18:13:00,
2013-02-26 12:18:00,33.6,29.9,29.67,NNE,22,6.0,12.0,86,0.00,,,0.01,Wunderground v.1.15,2013-02-26 18:18:00,
2013-02-26 12:23:00,33.5,30.0,29.67,NNE,19,4.0,14.0,87,0.00,,,0.01,Wunderground v.1.15,2013-02-26 18:23:00,
2013-02-26 12:28:00,33.4,30.2,29.67,NE,38,3.0,14.0,88,0.00,,,0.01,Wunderground v.1.15,2013-02-26 18:28:00,
2013-02-26 12:35:00,33.3,30.1,29.67,NNE,13,7.0,7.0,88,0.00,,,0.01,Wunderground v.1.15,2013-02-26 18:35:00,
2013-02-26 12:40:00,33.3,30.1,29.66,NE,42,3.0,10.0,88,0.00,,,0.01,Wunderground v.1.15,2013-02-26 18:40:00,
2013-02-26 12:45:00,33.3,30.1,29.66,NE,54,3.0,10.0,88,0.00,,,0.01,Wunderground v.1.15,2013-02-26 18:45:00,
2013-02-26 12:50:00,33.2,30.3,29.66,NE,50,5.0,10.0,89,0.00,,,0.01,Wunderground v.1.15,2013-02-26 18:50:00,
2013-02-26 12:56:00,33.1,30.2,29.66,ENE,66,7.0,10.0,89,0.00,,,0.01,Wunderground v.1.15,2013-02-26 18:56:00,
2013-02-26 13:02:00,33.1,30.2,29.66,NE,51,4.0,4.0,89,0.00,,,0.01,Wunderground v.1.15,2013-02-26 19:02:00,
2013-02-26 13:07:00,33.1,30.2,29.66,NE,40,4.0,7.0,89,0.00,,,0.01,Wunderground v.1.15,2013-02-26 19:07:00,
2013-02-26 13:12:00,33.1,30.2,29.66,NNE,13,8.0,8.0,89,0.00,,,0.01,Wunderground v.1.15,2013-02-26 19:12:00,
2013-02-26 13:17:00,33.1,30.2,29.66,ENE,65,3.0,13.0,89,0.00,,,0.01,Wunderground v.1.15,2013-02-26 19:17:00,
2013-02-26 13:23:00,32.9,30.0,29.66,East,79,8.0,8.0,89,0.00,,,0.01,Wunderground v.1.15,2013-02-26 19:23:00,
2013-02-26 13:28:00,32.7,30.1,29.66,NNE,15,8.0,19.0,90,0.00,,,0.01,Wunderground v.1.15,2013-02-26 19:28:00,
2013-02-26 13:33:00,32.6,30.0,29.66,North,360,13.0,14.0,90,0.00,,,0.01,Wunderground v.1.15,2013-02-26 19:33:00,
2013-02-26 13:38:00,32.4,29.8,29.66,NNE,33,3.0,18.0,90,0.00,,,0.01,Wunderground v.1.15,2013-02-26 19:38:00,
2013-02-26 13:44:00,32.3,29.7,29.66,NNE,24,2.0,7.0,90,0.00,,,0.01,Wunderground v.1.15,2013-02-26 19:44:00,
2013-02-26 13:49:00,32.3,30.0,29.66,NNE,30,4.0,10.0,91,0.00,,,0.01,Wunderground v.1.15,2013-02-26 19:49:00,
2013-02-26 13:54:00,32.2,29.9,29.66,NNE,31,11.0,19.0,91,0.00,,,0.01,Wunderground v.1.15,2013-02-26 19:54:00,
2013-02-26 13:59:00,32.2,29.9,29.66,NNE,20,15.0,22.0,91,0.00,,,0.01,Wunderground v.1.15,2013-02-26 19:59:00,
2013-02-26 14:04:00,32.1,29.8,29.66,NE,38,6.0,12.0,91,0.00,,,0.01,Wunderground v.1.15,2013-02-26 20:04:00,
2013-02-26 14:09:00,32.1,29.8,29.66,NNE,28,11.0,13.0,91,0.00,,,0.01,Wunderground v.1.15,2013-02-26 20:09:00,
2013-02-26 14:14:00,32.2,30.1,29.66,NNE,17,8.0,17.0,92,0.00,,,0.01,Wunderground v.1.15,2013-02-26 20:14:00,
2013-02-26 14:19:00,32.3,30.2,29.66,NNE,21,10.0,17.0,92,0.00,,,0.01,Wunderground v.1.15,2013-02-26 20:19:00,
2013-02-26 14:24:00,32.3,30.0,29.66,NE,36,4.0,22.0,91,0.00,,,0.01,Wunderground v.1.15,2013-02-26 20:24:00,
2013-02-26 14:29:00,32.4,30.3,29.66,NNE,17,20.0,22.0,92,0.00,,,0.01,Wunderground v.1.15,2013-02-26 20:29:00,
2013-02-26 14:34:00,32.3,30.0,29.66,North,10,10.0,24.0,91,0.00,,,0.01,Wunderground v.1.15,2013-02-26 20:34:00,
2013-02-26 14:40:00,32.2,30.1,29.66,NNE,13,16.0,24.0,92,0.00,,,0.01,Wunderground v.1.15,2013-02-26 20:40:00,
2013-02-26 14:45:00,32.1,30.0,29.66,North,5,8.0,24.0,92,0.00,,,0.01,Wunderground v.1.15,2013-02-26 20:45:00,
2013-02-26 14:50:00,31.9,30.1,29.66,NNW,346,12.0,24.0,93,0.00,,,0.01,Wunderground v.1.15,2013-02-26 20:50:00,
2013-02-26 14:55:00,31.6,30.1,29.66,NNE,19,16.0,17.0,94,0.00,,,0.01,Wunderground v.1.15,2013-02-26 20:55:00,
2013-02-26 15:00:00,31.5,30.0,29.66,North,5,22.0,24.0,94,0.00,,,0.01,Wunderground v.1.15,2013-02-26 21:00:00,
2013-02-26 15:05:00,31.4,30.1,29.66,North,5,13.0,20.0,95,0.00,,,0.01,Wunderground v.1.15,2013-02-26 21:05:00,
2013-02-26 15:10:00,31.3,30.0,29.66,North,5,16.0,18.0,95,0.00,,,0.01,Wunderground v.1.15,2013-02-26 21:10:00,
2013-02-26 15:15:00,31.2,29.9,29.66,North,5,19.0,23.0,95,0.00,,,0.01,Wunderground v.1.15,2013-02-26 21:15:00,
2013-02-26 15:20:00,31.1,29.8,29.66,NNE,21,14.0,19.0,95,0.00,,,0.01,Wunderground v.1.15,2013-02-26 21:20:00,
2013-02-26 15:25:00,31.1,30.1,29.66,North,11,19.0,25.0,96,0.00,,,0.01,Wunderground v.1.15,2013-02-26 21:25:00,
2013-02-26 15:30:00,31.0,30.0,29.66,NNE,13,16.0,25.0,96,0.00,,,0.01,Wunderground v.1.15,2013-02-26 21:30:00,
2013-02-26 15:35:00,31.0,30.0,29.67,NNE,12,19.0,19.0,96,0.00,,,0.01,Wunderground v.1.15,2013-02-26 21:35:00,
2013-02-26 15:40:00,31.0,30.0,29.67,NE,42,19.0,22.0,96,0.00,,,0.01,Wunderground v.1.15,2013-02-26 21:40:00,
2013-02-26 15:45:00,31.0,30.0,29.67,NNE,15,12.0,22.0,96,0.00,,,0.01,Wunderground v.1.15,2013-02-26 21:45:00,
2013-02-26 15:50:00,31.0,30.0,29.67,NNE,26,16.0,22.0,96,0.00,,,0.01,Wunderground v.1.15,2013-02-26 21:50:00,
2013-02-26 15:55:00,31.0,30.0,29.67,NE,34,16.0,22.0,96,0.00,,,0.01,Wunderground v.1.15,2013-02-26 21:55:00,
2013-02-26 16:00:00,31.0,30.0,29.67,North,9,20.0,20.0,96,0.00,,,0.01,Wunderground v.1.15,2013-02-26 22:00:00,
2013-02-26 16:05:00,31.0,30.0,29.67,North,11,18.0,23.0,96,0.00,,,0.01,Wunderground v.1.15,2013-02-26 22:05:00,
2013-02-26 16:10:00,31.0,30.0,29.67,North,9,19.0,21.0,96,0.00,,,0.01,Wunderground v.1.15,2013-02-26 22:10:00,
2013-02-26 16:15:00,31.0,30.0,29.67,North,5,17.0,21.0,96,0.00,,,0.01,Wunderground v.1.15,2013-02-26 22:15:00,
2013-02-26 16:20:00,31.0,30.0,29.67,North,5,20.0,24.0,96,0.00,,,0.01,Wunderground v.1.15,2013-02-26 22:20:00,
2013-02-26 16:25:00,31.0,30.0,29.67,North,5,16.0,23.0,96,0.00,,,0.01,Wunderground v.1.15,2013-02-26 22:25:00,
2013-02-26 16:30:00,31.0,30.2,29.67,North,5,21.0,26.0,97,0.00,,,0.01,Wunderground v.1.15,2013-02-26 22:30:00,
2013-02-26 16:35:00,31.1,30.3,29.67,North,5,16.0,22.0,97,0.00,,,0.01,Wunderground v.1.15,2013-02-26 22:35:00,
2013-02-26 16:40:00,31.1,30.3,29.67,North,9,16.0,22.0,97,0.00,,,0.01,Wunderground v.1.15,2013-02-26 22:40:00,
2013-02-26 16:46:00,31.1,30.3,29.68,North,5,14.0,23.0,97,0.00,,,0.01,Wunderground v.1.15,2013-02-26 22:46:00,
2013-02-26 16:51:00,31.2,30.4,29.69,North,9,16.0,23.0,97,0.00,,,0.01,Wunderground v.1.15,2013-02-26 22:51:00,
2013-02-26 16:56:00,31.2,30.4,29.69,NNE,12,17.0,17.0,97,0.00,,,0.01,Wunderground v.1.15,2013-02-26 22:56:00,
2013-02-26 17:01:00,31.2,30.4,29.69,North,5,9.0,16.0,97,0.00,,,0.01,Wunderground v.1.15,2013-02-26 23:01:00,
2013-02-26 17:06:00,31.3,30.5,29.69,North,10,14.0,15.0,97,0.00,,,0.01,Wunderground v.1.15,2013-02-26 23:06:00,
2013-02-26 17:11:00,31.3,30.5,29.70,NNE,15,11.0,17.0,97,0.00,,,0.01,Wunderground v.1.15,2013-02-26 23:11:00,
2013-02-26 17:16:00,31.3,30.5,29.70,NNE,13,10.0,15.0,97,0.00,,,0.01,Wunderground v.1.15,2013-02-26 23:16:00,
2013-02-26 17:22:00,31.4,30.6,29.70,NNE,17,14.0,14.0,97,0.00,,,0.01,Wunderground v.1.15,2013-02-26 23:22:00,
2013-02-26 17:27:00,31.3,30.5,29.69,North,5,16.0,18.0,97,0.00,,,0.01,Wunderground v.1.15,2013-02-26 23:27:00,
2013-02-26 17:34:00,31.4,30.6,29.70,North,5,16.0,16.0,97,0.00,,,0.01,Wunderground v.1.15,2013-02-26 23:34:00,
2013-02-26 17:39:00,31.4,30.6,29.70,NNE,17,17.0,21.0,97,0.00,,,0.01,Wunderground v.1.15,2013-02-26 23:39:00,
2013-02-26 17:44:00,31.4,30.6,29.70,NNE,14,15.0,18.0,97,0.00,,,0.01,Wunderground v.1.15,2013-02-26 23:44:00,
2013-02-26 17:49:00,31.4,30.6,29.70,NNE,12,17.0,20.0,97,0.00,,,0.01,Wunderground v.1.15,2013-02-26 23:49:00,
2013-02-26 17:54:00,31.4,30.6,29.70,NNE,13,16.0,16.0,97,0.00,,,0.01,Wunderground v.1.15,2013-02-26 23:54:00,
2013-02-26 17:59:00,31.4,30.6,29.70,North,11,14.0,20.0,97,0.00,,,0.01,Wunderground v.1.15,2013-02-26 23:59:00,
2013-02-26 18:04:00,31.4,30.6,29.70,North,9,14.0,18.0,97,0.00,,,0.01,Wunderground v.1.15,2013-02-27 00:04:00,
2013-02-26 18:09:00,31.5,30.7,29.71,NNE,13,15.0,16.0,97,0.00,,,0.01,Wunderground v.1.15,2013-02-27 00:09:00,
2013-02-26 18:14:00,31.5,30.7,29.71,North,5,14.0,15.0,97,0.00,,,0.01,Wunderground v.1.15,2013-02-27 00:14:00,
2013-02-26 18:19:00,31.5,30.7,29.71,North,5,14.0,17.0,97,0.00,,,0.01,Wunderground v.1.15,2013-02-27 00:19:00,
2013-02-26 18:24:00,31.5,30.7,29.71,North,360,13.0,18.0,97,0.00,,,0.01,Wunderground v.1.15,2013-02-27 00:24:00,
2013-02-26 18:29:00,31.5,30.7,29.71,North,5,17.0,18.0,97,0.00,,,0.01,Wunderground v.1.15,2013-02-27 00:29:00,
2013-02-26 18:34:00,31.5,30.7,29.72,North,11,16.0,19.0,97,0.00,,,0.01,Wunderground v.1.15,2013-02-27 00:34:00,
2013-02-26 18:39:00,31.6,30.8,29.72,North,5,17.0,19.0,97,0.00,,,0.01,Wunderground v.1.15,2013-02-27 00:39:00,
2013-02-26 18:44:00,31.6,30.8,29.72,North,9,16.0,17.0,97,0.00,,,0.01,Wunderground v.1.15,2013-02-27 00:44:00,
2013-02-26 18:49:00,31.6,30.8,29.72,North,9,18.0,18.0,97,0.00,,,0.01,Wunderground v.1.15,2013-02-27 00:49:00,
2013-02-26 18:54:00,31.5,30.7,29.72,NNE,14,15.0,18.0,97,0.00,,,0.01,Wunderground v.1.15,2013-02-27 00:54:00,
2013-02-26 18:59:00,31.5,30.7,29.71,North,11,14.0,19.0,97,0.00,,,0.01,Wunderground v.1.15,2013-02-27 00:59:00,
2013-02-26 19:04:00,31.6,30.8,29.71,North,9,16.0,18.0,97,0.00,,,0.01,Wunderground v.1.15,2013-02-27 01:04:00,
2013-02-26 19:09:00,31.6,30.8,29.72,North,10,16.0,18.0,97,0.00,,,0.01,Wunderground v.1.15,2013-02-27 01:09:00,
2013-02-26 19:14:00,31.6,30.8,29.72,North,5,15.0,19.0,97,0.00,,,0.01,Wunderground v.1.15,2013-02-27 01:14:00,
2013-02-26 19:19:00,31.6,30.8,29.72,North,5,17.0,19.0,97,0.00,,,0.01,Wunderground v.1.15,2013-02-27 01:19:00,
2013-02-26 19:25:00,31.6,30.8,29.72,North,9,16.0,18.0,97,0.00,,,0.01,Wunderground v.1.15,2013-02-27 01:25:00,
2013-02-26 19:30:00,31.6,30.8,29.72,North,5,18.0,18.0,97,0.00,,,0.01,Wunderground v.1.15,2013-02-27 01:30:00,
2013-02-26 19:35:00,31.6,30.8,29.72,North,360,13.0,17.0,97,0.00,,,0.01,Wunderground v.1.15,2013-02-27 01:35:00,
2013-02-26 19:40:00,31.6,30.8,29.72,North,5,14.0,18.0,97,0.00,,,0.01,Wunderground v.1.15,2013-02-27 01:40:00,
2013-02-26 19:45:00,31.6,30.8,29.72,North,360,16.0,17.0,97,0.00,,,0.01,Wunderground v.1.15,2013-02-27 01:45:00,
2013-02-26 19:50:00,31.6,30.8,29.72,North,360,15.0,18.0,97,0.00,,,0.01,Wunderground v.1.15,2013-02-27 01:50:00,
2013-02-26 19:55:00,31.6,30.8,29.72,North,360,16.0,19.0,97,0.00,,,0.01,Wunderground v.1.15,2013-02-27 01:55:00,
2013-02-26 20:00:00,31.6,30.8,29.72,North,5,15.0,16.0,97,0.00,,,0.01,Wunderground v.1.15,2013-02-27 02:00:00,
2013-02-26 20:05:00,31.6,30.8,29.72,North,360,16.0,18.0,97,0.00,,,0.01,Wunderground v.1.15,2013-02-27 02:05:00,
2013-02-26 20:10:00,31.6,30.8,29.73,North,351,18.0,18.0,97,0.00,,,0.01,Wunderground v.1.15,2013-02-27 02:10:00,
2013-02-26 20:15:00,31.6,30.8,29.73,North,5,19.0,19.0,97,0.00,,,0.01,Wunderground v.1.15,2013-02-27 02:15:00,
2013-02-26 20:20:00,31.6,30.8,29.73,North,5,15.0,19.0,97,0.00,,,0.01,Wunderground v.1.15,2013-02-27 02:20:00,
2013-02-26 20:25:00,31.6,30.8,29.73,North,5,16.0,20.0,97,0.00,,,0.01,Wunderground v.1.15,2013-02-27 02:25:00,
2013-02-26 20:30:00,31.6,30.8,29.73,North,355,17.0,20.0,97,0.00,,,0.01,Wunderground v.1.15,2013-02-27 02:30:00,
2013-02-26 20:35:00,31.6,30.8,29.73,North,360,15.0,18.0,97,0.00,,,0.01,Wunderground v.1.15,2013-02-27 02:35:00,
2013-02-26 20:40:00,31.6,30.8,29.73,North,355,17.0,19.0,97,0.00,,,0.01,Wunderground v.1.15,2013-02-27 02:40:00,
2013-02-26 20:45:00,31.6,30.8,29.73,North,355,19.0,19.0,97,0.00,,,0.01,Wunderground v.1.15,2013-02-27 02:45:00,
2013-02-26 20:51:00,31.6,30.8,29.73,North,355,14.0,19.0,97,0.00,,,0.01,Wunderground v.1.15,2013-02-27 02:51:00,
2013-02-26 20:56:00,31.6,30.8,29.74,North,360,13.0,18.0,97,0.00,,,0.01,Wunderground v.1.15,2013-02-27 02:56:00,
2013-02-26 21:01:00,31.6,30.8,29.73,North,355,15.0,17.0,97,0.00,,,0.01,Wunderground v.1.15,2013-02-27 03:01:00,
2013-02-26 21:06:00,31.6,30.8,29.73,North,360,14.0,17.0,97,0.00,,,0.01,Wunderground v.1.15,2013-02-27 03:06:00,
2013-02-26 21:11:00,31.6,30.8,29.74,North,5,15.0,15.0,97,0.00,,,0.01,Wunderground v.1.15,2013-02-27 03:11:00,
2013-02-26 21:16:00,31.6,30.8,29.74,North,350,15.0,16.0,97,0.00,,,0.01,Wunderground v.1.15,2013-02-27 03:16:00,
2013-02-26 21:21:00,31.6,30.8,29.73,North,355,15.0,16.0,97,0.00,,,0.01,Wunderground v.1.15,2013-02-27 03:21:00,
2013-02-26 21:26:00,31.6,30.8,29.73,North,355,15.0,17.0,97,0.00,,,0.01,Wunderground v.1.15,2013-02-27 03:26:00,
2013-02-26 21:31:00,31.6,30.8,29.73,North,355,14.0,19.0,97,0.00,,,0.01,Wunderground v.1.15,2013-02-27 03:31:00,
2013-02-26 21:36:00,31.6,30.8,29.73,North,5,17.0,19.0,97,0.00,,,0.01,Wunderground v.1.15,2013-02-27 03:36:00,
2013-02-26 21:41:00,31.6,30.8,29.73,North,5,17.0,20.0,97,0.00,,,0.01,Wunderground v.1.15,2013-02-27 03:41:00,
2013-02-26 21:46:00,31.6,30.8,29.74,North,9,17.0,20.0,97,0.00,,,0.01,Wunderground v.1.15,2013-02-27 03:46:00,
2013-02-26 21:52:00,31.5,30.7,29.74,North,11,11.0,16.0,97,0.00,,,0.01,Wunderground v.1.15,2013-02-27 03:52:00,
2013-02-26 21:57:00,31.3,30.5,29.74,NNE,13,8.0,16.0,97,0.00,,,0.01,Wunderground v.1.15,2013-02-27 03:57:00,
2013-02-26 22:04:00,31.1,30.3,29.74,North,360,9.0,9.0,97,0.00,,,0.01,Wunderground v.1.15,2013-02-27 04:04:00,
2013-02-26 22:09:00,31.1,30.3,29.74,NNE,20,7.0,12.0,97,0.00,,,0.01,Wunderground v.1.15,2013-02-27 04:09:00,
2013-02-26 22:14:00,31.1,30.3,29.74,North,5,5.0,12.0,97,0.00,,,0.01,Wunderground v.1.15,2013-02-27 04:14:00,
2013-02-26 22:19:00,31.0,30.2,29.74,NNE,12,13.0,15.0,97,0.00,,,0.01,Wunderground v.1.15,2013-02-27 04:19:00,
2013-02-26 22:24:00,31.1,30.3,29.74,NNE,15,12.0,15.0,97,0.00,,,0.01,Wunderground v.1.15,2013-02-27 04:24:00,
2013-02-26 22:29:00,31.1,30.3,29.74,NNE,14,11.0,15.0,97,0.00,,,0.01,Wunderground v.1.15,2013-02-27 04:29:00,
2013-02-26 22:34:00,31.1,30.3,29.74,North,5,10.0,13.0,97,0.00,,,0.01,Wunderground v.1.15,2013-02-27 04:34:00,
2013-02-26 22:39:00,31.2,30.4,29.74,North,5,12.0,16.0,97,0.00,,,0.01,Wunderground v.1.15,2013-02-27 04:39:00,
2013-02-26 22:44:00,31.3,30.5,29.74,North,5,13.0,15.0,97,0.00,,,0.01,Wunderground v.1.15,2013-02-27 04:44:00,
2013-02-26 22:49:00,31.2,30.4,29.74,NNE,28,12.0,15.0,97,0.00,,,0.01,Wunderground v.1.15,2013-02-27 04:49:00,
2013-02-26 22:54:00,31.2,30.4,29.74,NNE,25,15.0,16.0,97,0.00,,,0.01,Wunderground v.1.15,2013-02-27 04:54:00,
2013-02-26 22:59:00,31.1,30.3,29.74,North,9,13.0,16.0,97,0.00,,,0.01,Wunderground v.1.15,2013-02-27 04:59:00,
2013-02-26 23:00:00,31.1,30.3,29.74,NNE,17,13.0,14.0,97,0.00,,,0.01,Wunderground v.1.15,2013-02-27 05:00:00,
2013-02-26 23:02:00,31.1,30.3,29.74,North,11,13.0,13.0,97,0.00,,,0.01,Wunderground v.1.15,2013-02-27 05:02:00,
2013-02-26 23:03:00,31.1,30.3,29.74,North,11,13.0,14.0,97,0.00,,,0.01,Wunderground v.1.15,2013-02-27 05:03:00,
2013-02-26 23:08:00,31.0,30.2,29.74,North,5,14.0,17.0,97,0.00,,,0.01,Wunderground v.1.15,2013-02-27 05:08:00,
2013-02-26 23:13:00,31.0,30.2,29.74,North,5,13.0,14.0,97,0.00,,,0.01,Wunderground v.1.15,2013-02-27 05:13:00,
2013-02-26 23:18:00,31.0,30.2,29.73,North,355,12.0,15.0,97,0.00,,,0.01,Wunderground v.1.15,2013-02-27 05:18:00,
2013-02-26 23:23:00,31.0,30.2,29.73,North,360,17.0,17.0,97,0.00,,,0.01,Wunderground v.1.15,2013-02-27 05:23:00,
2013-02-26 23:28:00,30.9,30.1,29.74,North,360,18.0,19.0,97,0.00,,,0.01,Wunderground v.1.15,2013-02-27 05:28:00,
2013-02-26 23:33:00,30.8,30.0,29.74,North,5,15.0,18.0,97,0.00,,,0.01,Wunderground v.1.15,2013-02-27 05:33:00,
2013-02-26 23:38:00,30.8,30.0,29.73,North,11,16.0,18.0,97,0.00,,,0.01,Wunderground v.1.15,2013-02-27 05:38:00,
2013-02-26 23:43:00,30.7,30.0,29.74,North,5,16.0,17.0,97,0.00,,,0.01,Wunderground v.1.15,2013-02-27 05:43:00,
2013-02-26 23:48:00,30.7,30.0,29.73,North,5,16.0,18.0,97,0.00,,,0.01,Wunderground v.1.15,2013-02-27 05:48:00,
2013-02-26 23:53:00,30.6,29.9,29.73,North,5,13.0,16.0,97,0.00,,,0.01,Wunderground v.1.15,2013-02-27 05:53:00,